P/2001 Q6 ( NEAT ) 2024

Japanese version
Home page
Updated on October 11, 2019

---------------------------------------------------------------------

* Profile

* Orbital Elements

Perturbed ephemeris below is based on elements from MPC 45182. 

 Epoch = 2460360.50000 TT   T = 2460369.40233 TT
 Peri. =   42.91746         a =     7.9732507 AU
 Node  =   22.18569 J2000.0 e =     0.8236892
 Incl. =   56.90902         q =     1.4057698 AU

* Finding Charts

* Magnitudes Graph

        m1 = 14.0 + 5 log d +  10.0 log r  [   ,-50]  (             - 2024 Jan.  9)
        m1 = -5   + 5 log d + 110   log r  [-50,  0]  (2024 Jan.  9 - 2024 Feb. 28)
        m1 =  6.8 + 5 log d +  30   log r  [  0,   ]  (2024 Feb. 28 -             )

---------------------------------------------------------------------

The orbital elements are calculated using the Minor Planet & Comet Ephemeris Service.
The charts are made with StellaNavigator Ver.10 (AstroArts).
The magnitudes graphs are made with Comet for Windows.

---------------------------------------------------------------------

Copyright(C) Seiichi Yoshida (comet@aerith.net). All rights reserved.